Time,TemperatureF,DewpointF,PressureIn,WindDirection,WindDirectionDegrees,WindSpeedMPH,WindSpeedGustMPH,Humidity,HourlyPrecipIn,Conditions,Clouds,dailyrainin,SolarRadiationWatts/m^2,SoftwareType,DateUTC
2013-06-28 00:02:00,74.0,47.0,-100.00,NNE,33,5.0,11.0,39,-99.99,,,0.00,0.000000,,2013-06-28 06:02:00,
2013-06-28 00:12:00,74.0,47.0,-100.00,NNE,33,5.0,11.0,39,-99.99,,,0.00,0.000000,,2013-06-28 06:12:00,
2013-06-28 00:22:00,74.0,47.0,-100.00,NNE,33,5.0,11.0,39,-99.99,,,0.00,0.000000,,2013-06-28 06:22:00,
2013-06-28 00:33:00,74.0,47.0,-100.00,NNE,33,5.0,11.0,39,-99.99,,,0.00,0.000000,,2013-06-28 06:33:00,
2013-06-28 00:42:00,71.0,54.0,-100.00,ENE,63,5.0,13.0,55,0.00,,,0.00,0.000000,,2013-06-28 06:42:00,
2013-06-28 01:11:00,71.0,54.0,-100.00,ENE,63,5.0,13.0,55,0.00,,,0.00,0.000000,,2013-06-28 07:11:00,
2013-06-28 01:22:00,71.0,54.0,-100.00,ENE,63,5.0,13.0,55,0.00,,,0.00,0.000000,,2013-06-28 07:22:00,
2013-06-28 01:33:00,71.0,54.0,-100.00,ENE,63,5.0,13.0,55,0.00,,,0.00,0.000000,,2013-06-28 07:33:00,
2013-06-28 01:42:00,69.0,56.0,-100.00,ENE,57,6.0,17.0,63,0.00,,,0.00,0.000000,,2013-06-28 07:42:00,
2013-06-28 02:11:00,69.0,56.0,-100.00,ENE,57,6.0,17.0,63,0.00,,,0.00,0.000000,,2013-06-28 08:11:00,
2013-06-28 02:21:00,69.0,56.0,-100.00,ENE,57,6.0,17.0,63,0.00,,,0.00,0.000000,,2013-06-28 08:21:00,
2013-06-28 02:33:00,69.0,56.0,-100.00,ENE,57,6.0,17.0,63,0.00,,,0.00,0.000000,,2013-06-28 08:33:00,
2013-06-28 02:42:00,67.0,56.0,-100.00,NE,38,4.0,17.0,69,0.00,,,0.00,0.000000,,2013-06-28 08:42:00,
2013-06-28 03:11:00,67.0,56.0,-100.00,NE,38,4.0,17.0,69,0.00,,,0.00,0.000000,,2013-06-28 09:11:00,
2013-06-28 03:22:00,67.0,56.0,-100.00,NE,38,4.0,17.0,69,0.00,,,0.00,0.000000,,2013-06-28 09:22:00,
2013-06-28 03:33:00,67.0,56.0,-100.00,NE,38,4.0,17.0,69,0.00,,,0.00,0.000000,,2013-06-28 09:33:00,
2013-06-28 03:42:00,66.0,56.0,-100.00,NNE,28,3.0,14.0,71,0.00,,,0.00,0.000000,,2013-06-28 09:42:00,
2013-06-28 04:11:00,66.0,56.0,-100.00,NNE,28,3.0,14.0,71,0.00,,,0.00,0.000000,,2013-06-28 10:11:00,
2013-06-28 04:22:00,66.0,56.0,-100.00,NNE,28,3.0,14.0,71,0.00,,,0.00,0.000000,,2013-06-28 10:22:00,
2013-06-28 04:33:00,66.0,56.0,-100.00,NNE,28,3.0,14.0,71,0.00,,,0.00,0.000000,,2013-06-28 10:33:00,
2013-06-28 04:42:00,65.0,56.0,-100.00,NNW,344,3.0,14.0,72,0.00,,,0.00,0.000000,,2013-06-28 10:42:00,
2013-06-28 05:11:00,65.0,56.0,-100.00,NNW,344,3.0,14.0,72,0.00,,,0.00,0.000000,,2013-06-28 11:11:00,
2013-06-28 05:22:00,65.0,56.0,-100.00,NNW,344,3.0,14.0,72,0.00,,,0.00,0.000000,,2013-06-28 11:22:00,
2013-06-28 05:34:00,65.0,56.0,-100.00,NNW,344,3.0,14.0,72,0.00,,,0.00,0.000000,,2013-06-28 11:34:00,
2013-06-28 05:42:00,64.0,55.0,-100.00,North,9,3.0,14.0,73,0.00,,,-99.99,0.000000,,2013-06-28 11:42:00,
2013-06-28 06:12:00,64.0,55.0,-100.00,North,9,3.0,14.0,73,0.00,,,-99.99,0.000000,,2013-06-28 12:12:00,
2013-06-28 06:22:00,64.0,55.0,-100.00,North,9,3.0,14.0,73,0.00,,,-99.99,0.000000,,2013-06-28 12:22:00,
2013-06-28 06:33:00,64.0,55.0,-100.00,North,9,3.0,14.0,73,0.00,,,-99.99,0.000000,,2013-06-28 12:33:00,
2013-06-28 06:42:00,64.0,56.0,-100.00,NE,40,3.0,16.0,74,0.00,,,0.00,7.000000,,2013-06-28 12:42:00,
2013-06-28 07:11:00,64.0,56.0,-100.00,NE,40,3.0,16.0,74,0.00,,,0.00,7.000000,,2013-06-28 13:11:00,
2013-06-28 07:23:00,64.0,56.0,-100.00,NE,40,3.0,16.0,74,0.00,,,0.00,7.000000,,2013-06-28 13:23:00,
2013-06-28 07:33:00,64.0,56.0,-100.00,NE,40,3.0,16.0,74,0.00,,,0.00,7.000000,,2013-06-28 13:33:00,
2013-06-28 07:42:00,67.0,56.0,-100.00,North,6,3.0,20.0,67,0.00,,,0.00,96.000000,,2013-06-28 13:42:00,
2013-06-28 08:11:00,67.0,56.0,-100.00,North,6,3.0,20.0,67,0.00,,,0.00,96.000000,,2013-06-28 14:11:00,
2013-06-28 08:22:00,67.0,56.0,-100.00,North,6,3.0,20.0,67,0.00,,,0.00,96.000000,,2013-06-28 14:22:00,
2013-06-28 08:33:00,67.0,56.0,-100.00,North,6,3.0,20.0,67,0.00,,,0.00,96.000000,,2013-06-28 14:33:00,
2013-06-28 08:42:00,70.0,56.0,-100.00,NE,51,5.0,18.0,61,0.00,,,0.00,268.000000,,2013-06-28 14:42:00,
2013-06-28 09:11:00,70.0,56.0,-100.00,NE,51,5.0,18.0,61,0.00,,,0.00,268.000000,,2013-06-28 15:11:00,
2013-06-28 09:24:00,70.0,56.0,-100.00,NE,51,5.0,18.0,61,0.00,,,0.00,268.000000,,2013-06-28 15:24:00,
2013-06-28 09:33:00,70.0,56.0,-100.00,NE,51,5.0,18.0,61,0.00,,,0.00,268.000000,,2013-06-28 15:33:00,
2013-06-28 09:42:00,74.0,57.0,-100.00,NNE,20,4.0,17.0,55,0.00,,,0.00,444.000000,,2013-06-28 15:42:00,
2013-06-28 10:11:00,74.0,57.0,-100.00,NNE,20,4.0,17.0,55,0.00,,,0.00,444.000000,,2013-06-28 16:11:00,
2013-06-28 10:24:00,74.0,57.0,-100.00,NNE,20,4.0,17.0,55,0.00,,,0.00,444.000000,,2013-06-28 16:24:00,
2013-06-28 10:33:00,74.0,57.0,-100.00,NNE,20,4.0,17.0,55,0.00,,,0.00,444.000000,,2013-06-28 16:33:00,
2013-06-28 10:42:00,79.0,56.0,-100.00,North,9,3.0,11.0,45,0.00,,,0.00,612.000000,,2013-06-28 16:42:00,
2013-06-28 11:11:00,79.0,56.0,-100.00,North,9,3.0,11.0,45,0.00,,,0.00,612.000000,,2013-06-28 17:11:00,
2013-06-28 11:22:00,79.0,56.0,-100.00,North,9,3.0,11.0,45,0.00,,,0.00,612.000000,,2013-06-28 17:22:00,
2013-06-28 11:33:00,79.0,56.0,-100.00,North,9,3.0,11.0,45,0.00,,,0.00,612.000000,,2013-06-28 17:33:00,
2013-06-28 11:42:00,84.0,56.0,-100.00,ENE,76,3.0,13.0,38,0.00,,,0.00,757.000000,,2013-06-28 17:42:00,
2013-06-28 12:01:00,84.0,56.0,-100.00,ENE,76,3.0,13.0,38,0.00,,,0.00,757.000000,,2013-06-28 18:01:00,
2013-06-28 12:11:00,84.0,56.0,-100.00,ENE,76,3.0,13.0,38,0.00,,,0.00,757.000000,,2013-06-28 18:11:00,
2013-06-28 12:22:00,84.0,56.0,-100.00,ENE,76,3.0,13.0,38,0.00,,,0.00,757.000000,,2013-06-28 18:22:00,
2013-06-28 12:33:00,84.0,56.0,-100.00,ENE,76,3.0,13.0,38,0.00,,,0.00,757.000000,,2013-06-28 18:33:00,
2013-06-28 12:42:00,89.0,50.0,-100.00,ENE,66,5.0,15.0,26,0.00,,,0.00,872.000000,,2013-06-28 18:42:00,
2013-06-28 13:11:00,89.0,50.0,-100.00,ENE,66,5.0,15.0,26,0.00,,,0.00,872.000000,,2013-06-28 19:11:00,
2013-06-28 13:22:00,89.0,50.0,-100.00,ENE,66,5.0,15.0,26,0.00,,,0.00,872.000000,,2013-06-28 19:22:00,
2013-06-28 13:32:00,89.0,50.0,-100.00,ENE,66,5.0,15.0,26,0.00,,,0.00,872.000000,,2013-06-28 19:32:00,
2013-06-28 13:42:00,91.0,44.0,-100.00,South,180,6.0,11.0,20,0.00,,,0.00,932.000000,,2013-06-28 19:42:00,
2013-06-28 14:11:00,91.0,44.0,-100.00,South,180,6.0,11.0,20,0.00,,,0.00,932.000000,,2013-06-28 20:11:00,
2013-06-28 14:22:00,91.0,44.0,-100.00,South,180,6.0,11.0,20,0.00,,,0.00,932.000000,,2013-06-28 20:22:00,
2013-06-28 14:33:00,91.0,44.0,-100.00,South,180,6.0,11.0,20,0.00,,,0.00,932.000000,,2013-06-28 20:33:00,
2013-06-28 15:11:00,92.0,38.0,-100.00,South,178,6.0,12.0,15,0.00,,,0.00,951.000000,,2013-06-28 21:11:00,
2013-06-28 15:23:00,92.0,38.0,-100.00,South,178,6.0,12.0,15,0.00,,,0.00,951.000000,,2013-06-28 21:23:00,
2013-06-28 16:01:00,94.0,39.0,-100.00,WSW,245,3.0,10.0,15,0.00,,,0.00,922.000000,,2013-06-28 22:01:00,
2013-06-28 16:11:00,94.0,39.0,-100.00,WSW,245,3.0,10.0,15,0.00,,,0.00,922.000000,,2013-06-28 22:11:00,
2013-06-28 16:22:00,94.0,39.0,-100.00,WSW,245,3.0,10.0,15,0.00,,,0.00,922.000000,,2013-06-28 22:22:00,
2013-06-28 16:42:00,95.0,40.0,-100.00,NW,322,5.0,10.0,15,0.00,,,0.00,845.000000,,2013-06-28 22:42:00,
2013-06-28 17:11:00,95.0,40.0,-100.00,NW,322,5.0,10.0,15,0.00,,,0.00,845.000000,,2013-06-28 23:11:00,
2013-06-28 17:23:00,95.0,40.0,-100.00,NW,322,5.0,10.0,15,0.00,,,0.00,845.000000,,2013-06-28 23:23:00,
2013-06-28 17:33:00,95.0,40.0,-100.00,NW,322,5.0,10.0,15,0.00,,,0.00,845.000000,,2013-06-28 23:33:00,
2013-06-28 17:42:00,95.0,40.0,-100.00,South,185,3.0,8.0,15,0.00,,,0.00,720.000000,,2013-06-28 23:42:00,
2013-06-28 18:02:00,95.0,40.0,-100.00,South,185,3.0,8.0,15,0.00,,,0.00,720.000000,,2013-06-29 00:02:00,
2013-06-28 18:11:00,95.0,40.0,-100.00,South,185,3.0,8.0,15,0.00,,,0.00,720.000000,,2013-06-29 00:11:00,
2013-06-28 18:22:00,95.0,40.0,-100.00,South,185,3.0,8.0,15,0.00,,,0.00,720.000000,,2013-06-29 00:22:00,
2013-06-28 18:33:00,95.0,40.0,-100.00,South,185,3.0,8.0,15,0.00,,,0.00,720.000000,,2013-06-29 00:33:00,
2013-06-28 18:42:00,95.0,40.0,-100.00,SE,140,3.0,9.0,15,0.00,,,0.00,559.000000,,2013-06-29 00:42:00,
2013-06-28 19:11:00,95.0,40.0,-100.00,SE,140,3.0,9.0,15,0.00,,,0.00,559.000000,,2013-06-29 01:11:00,
2013-06-28 19:22:00,95.0,40.0,-100.00,SE,140,3.0,9.0,15,0.00,,,0.00,559.000000,,2013-06-29 01:22:00,
2013-06-28 19:31:00,95.0,40.0,-100.00,SE,140,3.0,9.0,15,0.00,,,0.00,559.000000,,2013-06-29 01:31:00,
2013-06-28 20:01:00,94.0,44.0,-100.00,NE,46,2.0,10.0,18,0.00,,,0.00,382.000000,,2013-06-29 02:01:00,
2013-06-28 20:10:00,94.0,44.0,-100.00,NE,46,2.0,10.0,18,0.00,,,0.00,382.000000,,2013-06-29 02:10:00,
2013-06-28 20:21:00,94.0,44.0,-100.00,NE,46,2.0,10.0,18,0.00,,,0.00,382.000000,,2013-06-29 02:21:00,
2013-06-28 20:31:00,94.0,44.0,-100.00,NE,46,2.0,10.0,18,0.00,,,0.00,382.000000,,2013-06-29 02:31:00,
2013-06-28 20:41:00,94.0,44.0,-100.00,NE,46,2.0,10.0,18,0.00,,,0.00,382.000000,,2013-06-29 02:41:00,
2013-06-28 21:01:00,92.0,46.0,-100.00,NNW,339,2.0,8.0,21,0.00,,,0.00,203.000000,,2013-06-29 03:01:00,
2013-06-28 21:11:00,92.0,46.0,-100.00,NNW,339,2.0,8.0,21,0.00,,,0.00,203.000000,,2013-06-29 03:11:00,
2013-06-28 21:21:00,92.0,46.0,-100.00,NNW,339,2.0,8.0,21,0.00,,,0.00,203.000000,,2013-06-29 03:21:00,
2013-06-28 21:31:00,92.0,46.0,-100.00,NNW,339,2.0,8.0,21,0.00,,,0.00,203.000000,,2013-06-29 03:31:00,
2013-06-28 21:41:00,92.0,46.0,-100.00,NNW,339,2.0,8.0,21,0.00,,,0.00,203.000000,,2013-06-29 03:41:00,
2013-06-28 22:01:00,82.0,55.0,-100.00,East,90,7.0,12.0,39,-99.99,,,0.00,47.000000,,2013-06-29 04:01:00,
2013-06-28 22:11:00,82.0,55.0,-100.00,East,90,7.0,12.0,39,-99.99,,,0.00,47.000000,,2013-06-29 04:11:00,
2013-06-28 22:22:00,82.0,55.0,-100.00,East,90,7.0,12.0,39,-99.99,,,0.00,47.000000,,2013-06-29 04:22:00,
2013-06-28 22:31:00,82.0,55.0,-100.00,East,90,7.0,12.0,39,-99.99,,,0.00,47.000000,,2013-06-29 04:31:00,
2013-06-28 22:41:00,82.0,55.0,-100.00,East,90,7.0,12.0,39,-99.99,,,0.00,47.000000,,2013-06-29 04:41:00,
2013-06-28 23:10:00,78.0,54.0,-100.00,NE,52,4.0,18.0,44,0.00,,,0.00,1.000000,,2013-06-29 05:10:00,
2013-06-28 23:21:00,78.0,54.0,-100.00,NE,52,4.0,18.0,44,0.00,,,0.00,1.000000,,2013-06-29 05:21:00,
2013-06-28 23:31:00,78.0,54.0,-100.00,NE,52,4.0,18.0,44,0.00,,,0.00,1.000000,,2013-06-29 05:31:00,
2013-06-28 23:41:00,78.0,54.0,-100.00,NE,52,4.0,18.0,44,0.00,,,0.00,1.000000,,2013-06-29 05:41:00,
2013-06-28 23:42:00,77.0,54.0,-100.00,ENE,66,4.0,13.0,45,0.00,,,0.00,0.000000,,2013-06-29 05:42:00,